ISS (ZARYA) 1 25544U 98067A 26255.20788499 .00004954 00000+0 97729-4 0 9996 2 25544 51.6305 229.4056 0004952 131.3152 228.8264 15.49086570585247 POISK 1 36086U 09060A 26255.20788499 .00004954 00000+0 97729-4 0 9994 2 36086 51.6305 229.4056 0004952 131.3152 228.8264 15.49086570586106 CSS (TIANHE) 1 48274U 21035A 26255.15172565 .00017671 00000+0 21733-3 0 9998 2 48274 41.4683 154.0266 0002631 272.9242 87.1296 15.59839597306741 ISS (NAUKA) 1 49044U 21066A 26255.20788499 .00004954 00000+0 97729-4 0 9992 2 49044 51.6305 229.4056 0004952 131.3152 228.8264 15.49086570586148 FREGAT DEB 1 49271U 11037PF 26254.96744922 .00016685 00000+0 23640-1 0 9998 2 49271 51.6436 100.5439 0940641 115.1330 255.0053 12.44351775235841 CSS (WENTIAN) 1 53239U 22085A 26255.15172565 .00017671 00000+0 21733-3 0 9991 2 53239 41.4683 154.0266 0002631 272.9242 87.1296 15.59839597288231 CSS (MENGTIAN) 1 54216U 22143A 26255.15172565 .00017671 00000+0 21733-3 0 9992 2 54216 41.4683 154.0266 0002631 272.9242 87.1296 15.59839597307442 HRC MONOBLOCK CAMERA 1 66052U 98067XR 26255.18690502 .00196094 25728-4 54955-3 0 9998 2 66052 51.6152 186.9536 0004944 123.0333 237.1149 15.93195159 51770 SZ-21 MODULE 1 66515U 25246C 26255.04223198 .00064969 00000+0 26718-3 0 9991 2 66515 41.4697 123.1786 0012068 281.0811 78.8679 15.84902372 47481 DUPLEX 1 66906U 98067XS 26255.10554226 .00043334 00000+0 36600-3 0 9996 2 66906 51.6252 208.4109 0004207 125.4650 234.6740 15.69308595 44274 KNACKSAT-2 1 67683U 98067XZ 26255.31192122 .00056149 00000+0 48789-3 0 9994 2 67683 51.6258 213.5681 0007959 152.6345 207.5073 15.68476422 33916 GXIBA-1 1 67685U 98067YB 26255.04650737 .00074699 00000+0 55248-3 0 9995 2 67685 51.6225 212.5134 0008609 147.6005 212.5523 15.72223662 33900 UITMSAT-2 1 67686U 98067YC 26255.23539205 .00174933 00000+0 79049-3 0 9990 2 67686 51.6212 206.2218 0007870 124.5208 235.6538 15.82906264 34009 LEOPARD 1 67687U 98067YD 26255.28461078 .00127414 00000+0 89426-3 0 9990 2 67687 51.6250 211.8911 0008031 126.7189 233.4548 15.73234124 33854 HMU-SAT2 1 67688U 98067YE 26255.26376614 .00114179 00000+0 67308-3 0 9999 2 67688 51.6247 208.7125 0007794 123.1620 237.0129 15.77287853 33899 CREW DRAGON 12 1 67796U 26031A 26255.20788499 .00004954 00000+0 97729-4 0 9993 2 67796 51.6305 229.4056 0004952 131.3152 228.8264 15.49086570586186 CYGNUS NG-24 1 68689U 26079A 26255.20788499 .00004954 00000+0 97729-4 0 9997 2 68689 51.6305 229.4056 0004952 131.3152 228.8264 15.49086570586302 PROGRESS-MS 34 1 68837U 26093A 26255.20788499 .00004954 00000+0 97729-4 0 9998 2 68837 51.6305 229.4056 0004952 131.3152 228.8264 15.49086570586341 TIANZHOU-10 1 69049U 26102A 26255.15172565 .00017671 00000+0 21733-3 0 9991 2 69049 41.4683 154.0266 0002631 272.9242 87.1296 15.59839597307532 SHENZHOU-23 (SZ-23) 1 69180U 26113A 26255.15172565 .00017671 00000+0 21733-3 0 9999 2 69180 41.4683 154.0266 0002631 272.9242 87.1296 15.59839597307268